• In Romania
  • List of Countries
  • For 7 days
  • Water Temperature
  • Satellite Maps
  • Weather Map
  • Weather Widgets
  • user-avatar
    Login

    Hourly Weather Cyganovka

    Today, 15 November, Thursday

    Time Temperature Precipitation Wind Pressure Humidity
    00:00 -7°C° 0 mm 4 mps 761 mmHg 43%
    01:00 -7°C° 0 mm 4 mps 761 mmHg 40%
    02:00 -7°C° 0 mm 4 mps 761 mmHg 37%
    03:00 -6°C° 0 mm 3 mps 761 mmHg 34%
    04:00 -7°C° 0 mm 3 mps 761 mmHg 33%
    05:00 -7°C° 0 mm 3 mps 762 mmHg 32%
    06:00 -7°C° 0 mm 3 mps 762 mmHg 32%
    07:00 -7°C° 0 mm 3 mps 762 mmHg 31%
    08:00 -6°C° 0 mm 3 mps 762 mmHg 31%
    09:00 -6°C° 0 mm 3 mps 763 mmHg 31%
    10:00 -5°C° 0 mm 3 mps 763 mmHg 31%
    11:00 -4°C° 0 mm 3 mps 763 mmHg 30%
    12:00 -2°C° 0 mm 3 mps 763 mmHg 29%
    13:00 -2°C° 0 mm 3 mps 763 mmHg 29%
    14:00 -2°C° 0 mm 3 mps 763 mmHg 29%
    15:00 -2°C° 0 mm 4 mps 763 mmHg 29%
    16:00 -2°C° 0 mm 3 mps 764 mmHg 30%
    17:00 -4°C° 0 mm 3 mps 764 mmHg 31%
    18:00 -5°C° 0 mm 3 mps 764 mmHg 32%
    19:00 -5°C° 0 mm 3 mps 764 mmHg 32%
    20:00 -5°C° 0 mm 3 mps 765 mmHg 31%
    21:00 -5°C° 0 mm 3 mps 765 mmHg 31%
    22:00 -6°C° 0 mm 3 mps 765 mmHg 31%
    23:00 -6°C° 0 mm 3 mps 765 mmHg 32%

    Tomorrow, 16 November, Friday

    Time Temperature Precipitation Wind Pressure Humidity
    00:00 -6°C° 0 mm 3 mps 765 mmHg 32%
    01:00 -6°C° 0 mm 3 mps 766 mmHg 32%
    02:00 -6°C° 0 mm 3 mps 766 mmHg 32%
    03:00 -7°C° 0 mm 3 mps 766 mmHg 32%
    04:00 -7°C° 0 mm 3 mps 766 mmHg 32%
    05:00 -7°C° 0 mm 3 mps 766 mmHg 32%
    06:00 -7°C° 0 mm 3 mps 766 mmHg 31%
    07:00 -6°C° 0 mm 3 mps 767 mmHg 29%
    08:00 -6°C° 0 mm 3 mps 767 mmHg 28%
    09:00 -6°C° 0 mm 3 mps 767 mmHg 26%
    10:00 -5°C° 0 mm 3 mps 767 mmHg 23%
    11:00 -2°C° 0 mm 3 mps 767 mmHg 21%
    12:00 -1°C° 0 mm 3 mps 767 mmHg 18%
    13:00 -1°C° 0 mm 3 mps 767 mmHg 19%
    14:00 -1°C° 0 mm 3 mps 767 mmHg 20%
    15:00 -1°C° 0 mm 3 mps 767 mmHg 20%
    16:00 -2°C° 0 mm 3 mps 767 mmHg 23%
    17:00 -4°C° 0 mm 3 mps 767 mmHg 25%
    18:00 -5°C° 0 mm 3 mps 767 mmHg 27%
    19:00 -5°C° 0 mm 3 mps 767 mmHg 27%
    20:00 -5°C° 0 mm 3 mps 767 mmHg 27%
    21:00 -5°C° 0 mm 3 mps 767 mmHg 27%
    22:00 -5°C° 0 mm 3 mps 767 mmHg 27%
    23:00 -5°C° 0 mm 3 mps 767 mmHg 27%

    Day after tomorrow, 17 November, Saturday

    Time Temperature Precipitation Wind Pressure Humidity
    00:00 -6°C° 0 mm 3 mps 767 mmHg 27%
    01:00 -5°C° 0 mm 2 mps 766 mmHg 27%
    02:00 -5°C° 0 mm 2 mps 766 mmHg 27%
    03:00 -5°C° 0 mm 2 mps 766 mmHg 27%
    04:00 -5°C° 0 mm 2 mps 766 mmHg 27%
    05:00 -5°C° 0 mm 2 mps 765 mmHg 27%
    06:00 -5°C° 0 mm 2 mps 765 mmHg 27%
    07:00 -5°C° 0 mm 2 mps 765 mmHg 26%
    08:00 -5°C° 0 mm 2 mps 765 mmHg 25%
    09:00 -5°C° 0 mm 2 mps 765 mmHg 25%
    10:00 -3°C° 0 mm 2 mps 764 mmHg 23%
    11:00 -2°C° 0 mm 2 mps 764 mmHg 21%
    12:00 +1°C° 0 mm 1 mps 764 mmHg 19%
    13:00 +1°C° 0 mm 1 mps 763 mmHg 20%
    14:00 +1°C° 0 mm 1 mps 762 mmHg 21%
    15:00 +1°C° 0 mm 1 mps 762 mmHg 22%
    16:00 0°C° 0 mm 1 mps 761 mmHg 23%
    17:00 -1°C° 0 mm 1 mps 761 mmHg 24%
    18:00 -1°C° 0 mm 1 mps 760 mmHg 25%
    19:00 -2°C° 0 mm 1 mps 759 mmHg 25%
    20:00 -3°C° 0 mm 0 mps 759 mmHg 25%
    21:00 -3°C° 0 mm 0 mps 758 mmHg 25%
    22:00 -2°C° 0 mm 1 mps 758 mmHg 25%
    23:00 -2°C° 0 mm 1 mps 757 mmHg 26%

    18 November, Sunday

    Time Temperature Precipitation Wind Pressure Humidity
    00:00 -3°C° 0 mm 1 mps 757 mmHg 26%
    01:00 -3°C° 0 mm 1 mps 756 mmHg 27%
    02:00 -3°C° 0 mm 1 mps 755 mmHg 28%
    03:00 -3°C° 0 mm 1 mps 755 mmHg 29%
    04:00 -3°C° 0 mm 1 mps 754 mmHg 30%
    05:00 -4°C° 0 mm 1 mps 754 mmHg 30%
    06:00 -4°C° 0 mm 1 mps 753 mmHg 30%
    07:00 -4°C° 0 mm 1 mps 753 mmHg 31%
    08:00 -5°C° 0 mm 2 mps 753 mmHg 31%
    09:00 -5°C° 0 mm 2 mps 752 mmHg 31%
    10:00 -4°C° 0 mm 2 mps 752 mmHg 30%
    11:00 -3°C° 0 mm 2 mps 752 mmHg 28%
    12:00 -2°C° 0 mm 2 mps 752 mmHg 27%
    13:00 -2°C° 0 mm 2 mps 752 mmHg 29%
    14:00 -2°C° 0 mm 2 mps 752 mmHg 31%
    15:00 -2°C° 0 mm 2 mps 752 mmHg 33%
    16:00 -2°C° 0 mm 2 mps 752 mmHg 37%
    17:00 -3°C° 0 mm 2 mps 752 mmHg 42%
    18:00 -3°C° 0 mm 2 mps 752 mmHg 47%
    19:00 -4°C° 0 mm 2 mps 752 mmHg 52%
    20:00 -4°C° 0 mm 2 mps 752 mmHg 57%
    21:00 -4°C° 0 mm 2 mps 752 mmHg 62%
    22:00 -4°C° 0 mm 2 mps 752 mmHg 65%
    23:00 -2°C° 0 mm 1 mps 752 mmHg 68%

    19 November, Monday

    Time Temperature Precipitation Wind Pressure Humidity
    00:00 -2°C° 0 mm 1 mps 753 mmHg 71%
    01:00 -2°C° 0 mm 1 mps 753 mmHg 73%
    02:00 -2°C° 0 mm 1 mps 753 mmHg 75%
    03:00 -2°C° 0 mm 1 mps 753 mmHg 77%
    04:00 -2°C° 0 mm 1 mps 754 mmHg 80%
    05:00 -3°C° 0 mm 1 mps 754 mmHg 83%
    06:00 -3°C° 0 mm 1 mps 754 mmHg 86%
    07:00 -2°C° 0 mm 1 mps 754 mmHg 86%
    08:00 -2°C° 0 mm 1 mps 755 mmHg 87%
    09:00 -4°C° 0 mm 2 mps 755 mmHg 88%
    10:00 -3°C° 0 mm 2 mps 756 mmHg 85%
    11:00 -2°C° 0 mm 2 mps 756 mmHg 82%
    12:00 -1°C° 0 mm 2 mps 756 mmHg 79%
    13:00 -1°C° 0 mm 2 mps 756 mmHg 79%
    14:00 -1°C° 0 mm 2 mps 757 mmHg 79%
    15:00 -1°C° 0 mm 2 mps 757 mmHg 80%
    16:00 -1°C° 0 mm 2 mps 757 mmHg 82%
    17:00 -2°C° 0 mm 2 mps 757 mmHg 85%
    18:00 -2°C° 0 mm 2 mps 758 mmHg 88%
    19:00 -2°C° 0 mm 2 mps 758 mmHg 89%
    20:00 -2°C° 0 mm 2 mps 758 mmHg 89%
    21:00 -2°C° 0 mm 2 mps 758 mmHg 90%
    22:00 -2°C° 0 mm 2 mps 758 mmHg 90%
    23:00 -2°C° 0 mm 2 mps 759 mmHg 90%

    20 November, Tuesday

    Time Temperature Precipitation Wind Pressure Humidity
    00:00 -2°C° 0 mm 2 mps 759 mmHg 90%
    01:00 -2°C° 0 mm 2 mps 759 mmHg 88%
    02:00 -2°C° 0 mm 2 mps 759 mmHg 87%
    03:00 -2°C° 0 mm 3 mps 759 mmHg 86%
    04:00 -2°C° 0 mm 3 mps 759 mmHg 84%
    05:00 -2°C° 0 mm 3 mps 759 mmHg 81%
    06:00 -2°C° 0 mm 3 mps 759 mmHg 79%
    07:00 -2°C° 0 mm 3 mps 759 mmHg 76%
    08:00 -2°C° 0 mm 3 mps 759 mmHg 73%
    09:00 -2°C° 0 mm 3 mps 759 mmHg 69%
    10:00 -2°C° 0 mm 3 mps 759 mmHg 67%
    11:00 -1°C° 0 mm 3 mps 759 mmHg 64%
    12:00 0°C° 0 mm 3 mps 759 mmHg 61%
    13:00 0°C° 0 mm 3 mps 759 mmHg 61%
    14:00 0°C° 0 mm 3 mps 759 mmHg 62%
    15:00 0°C° 0 mm 3 mps 758 mmHg 63%
    16:00 -1°C° 0 mm 3 mps 758 mmHg 65%
    17:00 -2°C° 0 mm 3 mps 758 mmHg 68%
    18:00 -3°C° 0 mm 2 mps 758 mmHg 71%
    19:00 -3°C° 0 mm 2 mps 758 mmHg 70%
    20:00 -3°C° 0 mm 2 mps 758 mmHg 70%
    21:00 -3°C° 0 mm 2 mps 758 mmHg 69%
    22:00 -3°C° 0 mm 2 mps 758 mmHg 70%
    23:00 -3°C° 0 mm 2 mps 758 mmHg 72%
    Show more